SR6WXJG Weather Reports


time (UTC)temp
C
wind
direction
speed
KPH
gust
KPH
rain 1hr
cm
rain 24hr
cm
rain mn
cm
humidity
%
barometer
mb
20260905195646 16 290 9.7 32.2 0.00 0.00 0.00 57 1022.0
20260905194146 16 290 9.7 32.2 0.00 0.00 0.00 57 1022.0
20260905192645 18 292 8.0 19.3 0.00 0.00 0.00 58 1022.0
20260905191145 18 292 8.0 19.3 0.00 0.00 0.00 55 1022.0
20260905185645 18 292 8.0 19.3 0.00 0.00 0.00 55 1022.0
20260905184144 18 306 11.3 30.6 0.00 0.00 0.00 54 1022.0
20260905182644 19 313 16.1 30.6 0.00 0.00 0.00 55 1021.0
20260905181143 19 313 16.1 30.6 0.00 0.00 0.00 55 1021.0
20260905175643 20 313 16.1 30.6 0.00 0.00 0.00 50 1021.0
20260905174143 20 313 16.1 30.6 0.00 0.00 0.00 50 1020.0
20260905172642 20 304 17.7 32.2 0.00 0.00 0.00 51 1020.0
20260905171142 21 304 17.7 32.2 0.00 0.00 0.00 51 1020.0
20260905165642 21 304 17.7 32.2 0.00 0.00 0.00 47 1020.0
20260905164141 21 304 17.7 32.2 0.00 0.00 0.00 47 1020.0
20260905162641 22 294 22.5 35.4 0.00 0.00 0.00 48 1019.0
20260905161140 22 294 22.5 35.4 0.00 0.00 0.00 48 1019.0
20260905155640 22 294 22.5 35.4 0.00 0.00 0.00 43 1019.0
20260905154140 22 294 22.5 35.4 0.00 0.00 0.00 43 1019.0
20260905152639 22 293 24.1 38.6 0.00 0.00 0.00 47 1019.0
20260905151139 23 293 24.1 38.6 0.00 0.00 0.00 47 1019.0
20260905145639 22 293 24.1 38.6 0.00 0.00 0.00 42 1019.0
20260905144138 23 293 24.1 38.6 0.00 0.00 0.00 42 1019.0
20260905142638 23 290 27.4 38.6 0.00 0.00 0.00 46 1019.0
20260905141138 23 290 27.4 38.6 0.00 0.00 0.00 47 1019.0
20260905135637 23 290 27.4 38.6 0.00 0.00 0.00 42 1018.0
20260905134137 23 290 27.4 38.6 0.00 0.00 0.00 42 1018.0
20260905132636 23 285 25.7 41.8 0.00 0.00 0.00 44 1019.0
20260905131136 22 285 25.7 41.8 0.00 0.00 0.00 44 1019.0
20260905125636 22 285 25.7 41.8 0.00 0.00 0.00 44 1019.0
20260905124136 22 280 24.1 40.2 0.00 0.00 0.00 44 1019.0
20260905122635 22 281 25.7 38.6 0.00 0.00 0.00 51 1020.0
20260905121135 22 281 25.7 38.6 0.00 0.00 0.00 52 1020.0
20260905115634 22 281 25.7 38.6 0.00 0.00 0.00 47 1019.0
20260905114134 22 281 25.7 38.6 0.00 0.00 0.00 47 1019.0
20260905112634 22 269 24.1 35.4 0.00 0.00 0.00 54 1020.0
20260905111133 22 269 24.1 35.4 0.00 0.00 0.00 56 1020.0
20260905105633 21 269 24.1 35.4 0.00 0.00 0.00 52 1019.0
20260905104133 21 269 24.1 35.4 0.00 0.00 0.00 52 1019.0
20260905102632 21 272 24.1 32.2 0.00 0.00 0.00 60 1020.0
20260905101132 21 272 24.1 32.2 0.00 0.00 0.00 63 1020.0
20260905095632 21 272 24.1 32.2 0.00 0.00 0.00 59 1020.0
20260905094131 21 272 24.1 32.2 0.00 0.00 0.00 59 1020.0
20260905092631 20 272 22.5 29.0 0.00 0.00 0.00 67 1020.0
20260905091130 20 272 22.5 29.0 0.00 0.00 0.00 69 1020.0
20260905085630 19 272 22.5 29.0 0.00 0.00 0.00 66 1020.0
20260905084130 18 272 22.5 29.0 0.00 0.00 0.00 68 1020.0
20260905082629 18 265 24.1 30.6 0.00 0.00 0.00 75 1020.0
20260905081129 18 265 24.1 30.6 0.00 0.00 0.00 77 1020.0
20260905075629 17 265 24.1 30.6 0.00 0.00 0.00 76 1020.0
20260905074128 16 265 24.1 30.6 0.00 0.00 0.00 76 1020.0
20260905072628 16 253 20.9 35.4 0.00 0.00 0.00 84 1019.0
20260905071128 15 253 20.9 35.4 0.00 0.00 0.00 84 1019.0
20260905065627 15 253 20.9 35.4 0.00 0.00 0.00 84 1019.0
20260905064127 15 248 16.1 33.8 0.00 0.00 0.00 86 1019.0
20260905062627 15 240 17.7 33.8 0.00 0.00 0.00 88 1019.0
20260905061126 14 240 17.7 33.8 0.00 0.00 0.00 89 1019.0
20260905055626 14 240 17.7 33.8 0.00 0.00 0.00 88 1019.0
20260905054125 14 240 17.7 33.8 0.00 0.00 0.00 88 1019.0
20260905052625 14 270 11.3 35.4 0.00 0.00 0.00 89 1018.0
20260905051125 14 270 11.3 35.4 0.00 0.00 0.00 89 1018.0
20260905045624 14 270 11.3 35.4 0.00 0.00 0.00 90 1018.0
20260905044124 14 270 11.3 35.4 0.03 0.00 0.00 89 1018.0
20260905042623 15 294 19.3 32.2 0.03 0.00 0.00 88 1017.0
20260905041123 15 294 19.3 32.2 0.03 0.00 0.00 87 1017.0
20260905035623 15 294 19.3 32.2 0.03 0.00 0.00 83 1018.0
20260905034122 15 294 19.3 32.2 0.00 0.00 0.00 82 1018.0
20260905032622 16 293 9.7 22.5 0.00 0.00 0.00 82 1017.0
20260905031121 16 293 9.7 22.5 0.00 0.00 0.00 81 1017.0
20260905025621 16 293 9.7 22.5 0.00 0.00 0.00 81 1016.0
20260905024121 16 293 9.7 22.5 0.00 0.00 0.00 81 1016.0
20260905022620 16 277 4.8 20.9 0.00 0.00 0.00 78 1016.0
20260905021120 17 277 4.8 20.9 0.00 0.00 0.00 77 1016.0
20260905015619 17 277 4.8 20.9 0.00 0.00 0.00 80 1016.0
20260905014119 18 277 4.8 20.9 0.00 0.00 0.00 73 1016.0
20260905012619 18 312 9.7 24.1 0.00 0.00 0.00 72 1016.0
20260905011119 18 312 9.7 24.1 0.00 0.00 0.00 72 1016.0
20260905005618 18 312 9.7 24.1 0.00 0.00 0.00 75 1015.0
20260905004118 18 312 9.7 24.1 0.00 0.00 0.00 75 1015.0
20260905002617 18 310 20.9 33.8 0.00 0.00 0.00 71 1015.0
20260905001117 18 310 20.9 33.8 0.00 0.00 0.00 71 1015.0
20260904235617 18 310 20.9 33.8 0.00 0.00 0.00 76 1015.0
20260904234116 18 310 20.9 33.8 0.00 0.00 0.00 76 1014.0
20260904232616 18 297 19.3 37.0 0.00 0.00 0.00 73 1014.0
20260904231115 18 297 19.3 37.0 0.00 0.00 0.00 72 1014.0
20260904225615 18 297 19.3 37.0 0.00 0.00 0.00 70 1013.0
20260904224115 19 297 19.3 37.0 0.00 0.00 0.00 70 1013.0
20260904222614 19 277 19.3 40.2 0.00 0.00 0.00 70 1013.0
20260904221114 19 277 19.3 40.2 0.00 0.00 0.00 69 1012.0
20260904215614 20 277 19.3 40.2 0.00 0.00 0.00 66 1012.0
20260904214113 20 277 19.3 40.2 0.00 0.00 0.00 66 1012.0
20260904212613 21 261 20.9 45.1 0.00 0.00 0.00 66 1012.0
20260904211112 21 261 20.9 45.1 0.00 0.00 0.00 66 1011.0
20260904205612 22 261 20.9 45.1 0.00 0.00 0.00 62 1011.0
20260904204112 22 261 20.9 45.1 0.00 0.00 0.00 62 1011.0
20260904202611 23 253 20.9 45.1 0.00 0.00 0.00 63 1011.0
20260904201111 23 253 20.9 45.1 0.00 0.00 0.00 63 1011.0